Weather History for Evanston, WY

Change the Weather History Date:

Monday, March 25, 2013

  Actual Average Record
Temperature  
Mean Temperature 22 °F 34 °F  
Max Temperature 37 °F 43 °F 64 °F (2012)
Min Temperature 7 °F 24 °F 7 °F (2013)
Degree Days  
Heating Degree Days 43 31  
Month to date heating degree days 858 877  
Since 1 July heating degree days 6453 6885  
Cooling Degree Days 0 0  
Month to date cooling degree days 0 0  
Year to date cooling degree days 0 0  
Moisture  
Dew Point 8 °F    
Average Humidity 54    
Maximum Humidity 69    
Minimum Humidity 39    
Precipitation  
Precipitation 0.00 in 0.04 in 0.03 in (2005)
Month to date precipitation 0.40 0.62  
Year to date precipitation 0.87 1.77  
Sea Level Pressure  
Sea Level Pressure 30.22 in    
Wind  
Wind Speed 5 mph (South)    
Max Wind Speed 10 mph    
Max Gust Speed 17 mph    
Visibility 10 miles    
Events      
T = Trace of Precipitation, MM = Missing Value Source: NWS Daily Summary

Daily Weather History Graph

Daily Weather History Graph

Search for Another Location

Airport:

Trip Planner

Search our weather history database for the weather conditions in past years. The results will help you decide how hot, cold, wet, or windy it might be!

Date:

Astronomy

Mar. 25, 2013 Rise Set
Actual Time 7:18 AM MDT 7:42 PM MDT
Civil Twilight 6:50 AM MDT 8:09 PM MDT
Nautical Twilight 6:18 AM MDT 8:42 PM MDT
Astronomical Twilight 5:45 AM MDT 9:15 PM MDT
Moon 6:17 PM MDT (3/25) 6:04 AM MDT (3/25)
Length of Visible Light 13h 18m
Length of Day
12h 23m
Waxing Gibbous, 97% of the Moon is Illuminated
Mar 25
Waxing Gibbous
Mar 27
Full
Apr 2
Last Quarter
Apr 10
New
Apr 18
First Quarter

Hourly Weather History & Observations

Time (MDT) Temp. Windchill Dew Point Humidity Pressure Visibility Wind Dir Wind Speed Gust Speed Precip Events Conditions
12:53 AM 9.0 °F -3.2 °F 1.0 °F 70% 30.30 in 10.0 mi East 8.1 mph - N/A   Clear
1:53 AM 12.0 °F 5.9 °F 3.9 °F 70% 30.27 in 10.0 mi SSE 3.5 mph - N/A   Clear
2:53 AM 9.0 °F -0.9 °F 1.0 °F 70% 30.27 in 10.0 mi SSE 5.8 mph - N/A   Clear
3:53 AM 9.0 °F -0.9 °F -0.9 °F 64% 30.25 in 10.0 mi SE 5.8 mph - N/A   Clear
4:53 AM 8.1 °F -0.5 °F -0.9 °F 67% 30.27 in 10.0 mi SSE 4.6 mph - N/A   Clear
5:53 AM 8.1 °F -2.0 °F -2.9 °F 61% 30.27 in 10.0 mi SSE 5.8 mph - N/A   Clear
6:53 AM 7.0 °F -1.7 °F -4.0 °F 61% 30.27 in 10.0 mi SSE 4.6 mph - N/A   Clear
7:53 AM 7.0 °F -3.3 °F -2.9 °F 64% 30.30 in 10.0 mi SE 5.8 mph - N/A   Clear
8:53 AM 12.9 °F 6.9 °F -0.9 °F 54% 30.29 in 10.0 mi SE 3.5 mph - N/A   Clear
9:53 AM 17.1 °F 11.7 °F -0.9 °F 45% 30.29 in 10.0 mi SE 3.5 mph - N/A   Clear
10:53 AM 21.0 °F 16.2 °F 3.9 °F 48% 30.28 in 10.0 mi Variable 3.5 mph - N/A   Clear
11:53 AM 25.0 °F 19.3 °F 5.0 °F 43% 30.26 in 10.0 mi WSW 4.6 mph - N/A   Clear
12:53 PM 28.0 °F 21.7 °F 6.1 °F 39% 30.26 in 10.0 mi WSW 5.8 mph - N/A   Clear
1:53 PM 30.9 °F 26.2 °F 10.9 °F 43% 30.21 in 10.0 mi Variable 4.6 mph - N/A   Clear
2:53 PM 34.0 °F 24.6 °F 12.9 °F 42% 30.19 in 10.0 mi SW 13.8 mph 19.6 mph N/A   Clear
3:53 PM 35.1 °F 26.9 °F 15.1 °F 44% 30.18 in 10.0 mi WSW 11.5 mph - N/A   Clear
4:53 PM 35.1 °F 29.3 °F 16.0 °F 46% 30.17 in 10.0 mi SW 6.9 mph - N/A   Clear
5:53 PM 37.0 °F 29.8 °F 18.0 °F 46% 30.15 in 10.0 mi West 10.4 mph - N/A   Partly Cloudy
6:53 PM 33.1 °F 24.9 °F 19.9 °F 59% 30.17 in 10.0 mi WSW 10.4 mph - N/A   Partly Cloudy
7:53 PM 32.0 °F 24.8 °F 19.0 °F 59% 30.18 in 10.0 mi West 8.1 mph - N/A   Mostly Cloudy
8:53 PM 30.9 °F 25.2 °F 19.0 °F 61% 30.16 in 10.0 mi WSW 5.8 mph - N/A   Overcast
9:53 PM 30.9 °F 26.2 °F 18.0 °F 59% 30.14 in 10.0 mi SW 4.6 mph - N/A   Mostly Cloudy
10:53 PM 30.9 °F 27.5 °F 19.9 °F 64% 30.11 in 10.0 mi ESE 3.5 mph - N/A   Overcast
11:53 PM 30.9 °F 27.5 °F 18.0 °F 59% 30.08 in 10.0 mi SE 3.5 mph - N/A   Mostly Cloudy